Time,TemperatureF,DewpointF,PressureIn,WindDirection,WindDirectionDegrees,WindSpeedMPH,WindSpeedGustMPH,Humidity,HourlyPrecipIn,Conditions,Clouds,dailyrainin,SoftwareType,DateUTC
2013-02-17 00:00:00,5.0,-99.9,-100.00,North,3,0.0,0.0,-999,-99.99,,,-99.99,,2013-02-17 07:00:00,
2013-02-17 00:52:00,5.0,-99.9,-100.00,North,3,0.0,0.0,-999,-99.99,,,-99.99,,2013-02-17 07:52:00,
2013-02-17 01:00:00,7.0,-99.9,-100.00,North,-999,-999.0,-999.0,-999,-99.99,,,-99.99,,2013-02-17 08:00:00,
2013-02-17 01:52:00,7.0,-99.9,-100.00,North,-999,-999.0,-999.0,-999,-99.99,,,-99.99,,2013-02-17 08:52:00,
2013-02-17 02:00:00,5.0,-99.9,-100.00,North,3,0.0,0.0,-999,-99.99,,,-99.99,,2013-02-17 09:00:00,
2013-02-17 02:52:00,5.0,-99.9,-100.00,North,3,0.0,0.0,-999,-99.99,,,-99.99,,2013-02-17 09:52:00,
2013-02-17 03:00:00,4.0,-99.9,-100.00,North,3,0.0,0.0,-999,-99.99,,,-99.99,,2013-02-17 10:00:00,
2013-02-17 03:52:00,4.0,-99.9,-100.00,North,3,0.0,0.0,-999,-99.99,,,-99.99,,2013-02-17 10:52:00,
2013-02-17 04:00:00,5.0,-99.9,-100.00,North,3,0.0,0.0,-999,-99.99,,,-99.99,,2013-02-17 11:00:00,
2013-02-17 04:53:00,5.0,-99.9,-100.00,North,3,0.0,0.0,-999,-99.99,,,-99.99,,2013-02-17 11:53:00,
2013-02-17 05:00:00,3.0,-99.9,-100.00,North,3,0.0,0.0,-999,-99.99,,,-99.99,,2013-02-17 12:00:00,
2013-02-17 05:52:00,3.0,-99.9,-100.00,North,3,0.0,0.0,-999,-99.99,,,-99.99,,2013-02-17 12:52:00,
2013-02-17 06:00:00,2.0,-99.9,-100.00,North,1,0.0,0.0,-999,-99.99,,,-99.99,,2013-02-17 13:00:00,
2013-02-17 06:52:00,2.0,-99.9,-100.00,North,1,0.0,0.0,-999,-99.99,,,-99.99,,2013-02-17 13:52:00,
2013-02-17 07:00:00,4.0,-99.9,-100.00,North,-999,-999.0,-999.0,-999,-99.99,,,0.00,,2013-02-17 14:00:00,
2013-02-17 07:54:00,4.0,-99.9,-100.00,North,-999,-999.0,-999.0,-999,-99.99,,,0.00,,2013-02-17 14:54:00,
2013-02-17 08:00:00,11.0,-99.9,-100.00,North,2,0.0,1.0,-999,-99.99,,,0.00,,2013-02-17 15:00:00,
2013-02-17 08:52:00,11.0,-99.9,-100.00,North,2,0.0,1.0,-999,-99.99,,,0.00,,2013-02-17 15:52:00,
2013-02-17 09:00:00,24.0,-99.9,-100.00,North,2,0.0,0.0,-999,-99.99,,,0.00,,2013-02-17 16:00:00,
2013-02-17 09:52:00,24.0,-99.9,-100.00,North,2,0.0,0.0,-999,-99.99,,,0.00,,2013-02-17 16:52:00,
2013-02-17 10:00:00,40.0,-99.9,-100.00,North,-999,-999.0,-999.0,-999,-99.99,,,0.00,,2013-02-17 17:00:00,
2013-02-17 10:53:00,40.0,-99.9,-100.00,North,-999,-999.0,-999.0,-999,-99.99,,,0.00,,2013-02-17 17:53:00,
2013-02-17 11:00:00,43.0,-99.9,-100.00,North,-999,-999.0,-999.0,-999,-99.99,,,0.00,,2013-02-17 18:00:00,
2013-02-17 11:53:00,43.0,-99.9,-100.00,North,-999,-999.0,-999.0,-999,-99.99,,,0.00,,2013-02-17 18:53:00,
2013-02-17 12:00:00,44.0,-99.9,-100.00,North,360,4.0,14.0,-999,-99.99,,,0.00,,2013-02-17 19:00:00,
2013-02-17 12:52:00,44.0,-99.9,-100.00,North,360,4.0,14.0,-999,-99.99,,,0.00,,2013-02-17 19:52:00,
2013-02-17 13:00:00,44.0,-99.9,-100.00,North,-999,-999.0,-999.0,-999,-99.99,,,0.00,,2013-02-17 20:00:00,
2013-02-17 13:52:00,44.0,-99.9,-100.00,North,-999,-999.0,-999.0,-999,-99.99,,,0.00,,2013-02-17 20:52:00,
2013-02-17 14:00:00,44.0,-99.9,-100.00,North,-999,-999.0,-999.0,-999,-99.99,,,0.00,,2013-02-17 21:00:00,
2013-02-17 14:53:00,44.0,-99.9,-100.00,North,-999,-999.0,-999.0,-999,-99.99,,,0.00,,2013-02-17 21:53:00,
2013-02-17 15:00:00,42.0,-99.9,-100.00,North,0,5.0,14.0,-999,-99.99,,,0.00,,2013-02-17 22:00:00,
2013-02-17 15:53:00,42.0,-99.9,-100.00,North,0,5.0,14.0,-999,-99.99,,,0.00,,2013-02-17 22:53:00,
2013-02-17 22:00:00,21.0,-99.9,-100.00,North,-999,-999.0,-999.0,-999,-99.99,,,0.01,,2013-02-18 05:00:00,
2013-02-17 22:52:00,21.0,-99.9,-100.00,North,-999,-999.0,-999.0,-999,-99.99,,,0.01,,2013-02-18 05:52:00,